SR9WXM Weather Reports


Display with metric or nautical units.
time (UTC)temp
F
wind
direction
speed
MPH
gust
MPH
rain 1hr
in
rain 24hr
in
rain mn
in
humidity
%
barometer
mb
20260906174402 49 59 3.0 6.0 0.00 0.00 0.00 100
20260906174202 49 64 4.0 6.0 0.00 0.00 0.00 100
20260906174002 49 65 4.0 8.0 0.00 0.00 0.00 100
20260906173751 49 61 5.0 7.0 0.00 0.00 0.00 100
20260906173551 49 45 4.0 7.0 0.00 0.00 0.00 100
20260906173351 49 75 2.0 6.0 0.00 0.00 0.00 100
20260906173151 49 56 4.0 7.0 0.00 0.00 0.00 100
20260906172951 49 39 4.0 6.0 0.00 0.00 0.00 100
20260906172751 49 64 4.0 6.0 0.00 0.00 0.00 100
20260906172551 49 67 3.0 5.0 0.00 0.00 0.00 100
20260906172351 49 54 4.0 8.0 0.00 0.00 0.00 100
20260906172150 49 46 5.0 8.0 0.00 0.00 0.00 100
20260906171950 49 46 2.0 4.0 0.00 0.00 0.00 100
20260906171748 50 33 3.0 5.0 0.00 0.00 0.00 100
20260906171548 50 45 3.0 5.0 0.00 0.00 0.00 100
20260906171348 50 37 3.0 7.0 0.00 0.00 0.00 100
20260906171148 50 46 4.0 7.0 0.00 0.00 0.00 100
20260906170948 50 22 4.0 7.0 0.00 0.00 0.00 100
20260906170748 50 13 4.0 6.0 0.00 0.00 0.00 100
20260906170548 50 22 4.0 6.0 0.00 0.00 0.00 100
20260906170348 51 48 4.0 6.0 0.00 0.00 0.00 100
20260906170148 51 68 3.0 5.0 0.00 0.00 0.00 100
20260906165948 51 32 2.0 5.0 0.00 0.00 0.00 100
20260906165746 51 35 2.0 4.0 0.00 0.00 0.00 100
20260906165546 51 33 3.0 5.0 0.00 0.00 0.00 100
20260906165346 51 11 5.0 8.0 0.00 0.00 0.00 100
20260906165146 52 14 5.0 8.0 0.00 0.00 0.00 100
20260906164946 52 15 5.0 7.0 0.00 0.00 0.00 100
20260906164746 52 356 3.0 7.0 0.00 0.00 0.00 100
20260906164546 52 358 2.0 4.0 0.00 0.00 0.00 100
20260906164346 52 350 3.0 5.0 0.00 0.00 0.00 100
20260906164146 52 356 3.0 5.0 0.00 0.00 0.00 100
20260906163945 52 0 2.0 3.0 0.00 0.00 0.00 100
20260906163743 52 50 2.0 5.0 0.00 0.00 0.00 100
20260906163543 52 34 4.0 10.0 0.00 0.00 0.00 100
20260906163343 52 14 4.0 6.0 0.00 0.00 0.00 100
20260906163143 52 0 3.0 6.0 0.00 0.00 0.00 100
20260906162944 52 3 2.0 4.0 0.00 0.00 0.00 100
20260906162744 53 21 3.0 8.0 0.00 0.00 0.00 100
20260906162544 53 327 4.0 8.0 0.00 0.00 0.00 100
20260906162344 53 354 3.0 6.0 0.00 0.00 0.00 100
20260906162144 53 11 4.0 7.0 0.00 0.00 0.00 100
20260906161944 53 352 4.0 7.0 0.00 0.00 0.00 100
20260906161741 53 331 3.0 7.0 0.00 0.00 0.00 100
20260906161539 53 2 3.0 7.0 0.00 0.00 0.00 100
20260906161339 53 341 3.0 5.0 0.00 0.00 0.00 100
20260906161139 53 34 2.0 5.0 0.00 0.00 0.00 100
20260906160939 53 9 2.0 4.0 0.00 0.00 0.00 100
20260906160746 53 348 3.0 4.0 0.00 0.00 0.00 100
20260906160538 53 216 4.0 7.0 0.00 0.00 0.00 100
20260906160338 53 86 2.0 7.0 0.00 0.00 0.00 100
20260906160139 53 358 4.0 8.0 0.00 0.00 0.00 100
20260906155939 53 343 4.0 8.0 0.00 0.00 0.00 100
20260906155737 54 4 4.0 8.0 0.00 0.00 0.00 100
20260906155537 54 35 5.0 9.0 0.00 0.00 0.00 100
20260906155337 54 32 4.0 9.0 0.00 0.00 0.00 100
20260906155137 54 334 4.0 8.0 0.00 0.00 0.00 100
20260906154937 54 294 4.0 9.0 0.00 0.00 0.00 100
20260906154737 54 346 2.0 5.0 0.00 0.00 0.00 100
20260906154536 54 31 3.0 6.0 0.00 0.00 0.00 100
20260906154336 54 329 3.0 6.0 0.00 0.00 0.00 100
20260906154136 54 357 2.0 4.0 0.00 0.00 0.00 100
20260906153936 54 332 3.0 5.0 0.00 0.00 0.00 100
20260906153734 54 335 4.0 8.0 0.00 0.00 0.00 100
20260906153534 54 10 6.0 9.0 0.00 0.00 0.00 100
20260906153334 54 1 5.0 9.0 0.00 0.00 0.00 100
20260906153134 54 338 4.0 8.0 0.00 0.00 0.00 100
20260906152934 55 331 2.0 8.0 0.00 0.00 0.00 100
20260906152734 54 330 3.0 7.0 0.00 0.00 0.00 100
20260906152534 54 17 4.0 8.0 0.00 0.00 0.00 100
20260906152334 54 39 5.0 8.0 0.00 0.00 0.00 100
20260906152134 54 32 3.0 6.0 0.00 0.00 0.00 100
20260906151934 54 8 2.0 6.0 0.00 0.00 0.00 100
20260906151732 55 317 3.0 6.0 0.00 0.00 0.00 100
20260906151532 55 275 3.0 6.0 0.00 0.00 0.00 100
20260906151332 55 316 3.0 6.0 0.00 0.00 0.00 100
20260906151133 55 358 3.0 5.0 0.00 0.00 0.00 100
20260906150932 55 290 4.0 8.0 0.00 0.00 0.00 100
20260906150732 55 261 2.0 8.0 0.00 0.00 0.00 100
20260906150532 55 224 3.0 6.0 0.00 0.00 0.00 100
20260906150332 55 8 4.0 8.0 0.00 0.00 0.00 100
20260906150125 55 34 4.0 12.0 0.00 0.00 0.00 100
20260906145925 55 306 3.0 6.0 0.00 0.00 0.00 100
20260906145723 54 339 5.0 8.0 0.00 0.00 0.00 100
20260906145523 54 311 4.0 8.0 0.00 0.00 0.00 100
20260906145323 54 289 5.0 8.0 0.00 0.00 0.00 100
20260906145123 54 98 4.0 6.0 0.00 0.00 0.00 100
20260906144923 54 340 4.0 6.0 0.00 0.00 0.00 100
20260906144723 53 5 5.0 10.0 0.00 0.00 0.00 100
20260906144523 54 7 5.0 10.0 0.00 0.00 0.00 100
20260906144323 53 17 6.0 10.0 0.00 0.00 0.00 100
20260906144122 53 33 5.0 8.0 0.00 0.00 0.00 100
20260906143922 54 21 4.0 7.0 0.00 0.00 0.00 100
20260906143721 54 358 4.0 7.0 0.00 0.00 0.00 100
20260906143521 54 357 4.0 8.0 0.00 0.00 0.00 100
20260906143321 55 13 4.0 8.0 0.00 0.00 0.00 100
20260906143121 55 311 5.0 11.0 0.00 0.00 0.00 100
20260906142921 55 311 6.0 11.0 0.00 0.00 0.00 100
20260906142721 55 309 4.0 7.0 0.00 0.00 0.00 100
20260906142521 54 185 3.0 6.0 0.00 0.00 0.00 100
20260906142321 54 75 4.0 7.0 0.00 0.00 0.00 100
20260906142120 54 25 4.0 7.0 0.00 0.00 0.00 100
20260906141920 54 0 4.0 11.0 0.00 0.00 0.00 100
20260906141718 54 275 4.0 11.0 0.00 0.00 0.00 100
20260906141518 53 331 4.0 7.0 0.00 0.00 0.00 100
20260906141318 53 340 4.0 7.0 0.00 0.00 0.00 100
20260906141118 53 297 5.0 8.0 0.00 0.00 0.00 100
20260906140918 52 354 4.0 8.0 0.00 0.00 0.00 100
20260906140718 52 349 4.0 7.0 0.00 0.00 0.00 100
20260906140518 52 332 4.0 7.0 0.00 0.00 0.00 100
20260906140318 52 340 4.0 9.0 0.00 0.00 0.00 100
20260906140118 52 346 5.0 9.0 0.00 0.00 0.00 100
20260906135918 52 331 4.0 9.0 0.00 0.00 0.00 100
20260906135716 52 0 4.0 8.0 0.00 0.00 0.00 100
20260906135516 52 0 4.0 8.0 0.00 0.00 0.00 100
20260906135316 52 180 4.0 8.0 0.00 0.00 0.00 100
20260906135116 52 61 4.0 8.0 0.00 0.00 0.00 100
20260906134917 52 33 4.0 8.0 0.00 0.00 0.00 100
20260906134716 53 270 4.0 8.0 0.00 0.00 0.00 100
20260906134516 53 227 6.0 10.0 0.00 0.00 0.00 100
20260906134316 53 236 8.0 10.0 0.00 0.00 0.00 100
20260906134116 54 260 6.0 11.0 0.00 0.00 0.00 100
20260906133916 54 270 7.0 11.0 0.00 0.00 0.00 100
20260906133715 54 215 8.0 12.0 0.00 0.00 0.00 100
20260906133515 54 223 8.0 14.0 0.00 0.00 0.00 100
20260906133315 53 282 6.0 11.0 0.00 0.00 0.00 100
20260906133115 53 280 8.0 13.0 0.00 0.00 0.00 100
20260906132915 53 289 6.0 11.0 0.00 0.00 0.00 100
20260906132715 52 252 6.0 10.0 0.00 0.00 0.00 100
20260906132515 52 219 5.0 9.0 0.00 0.00 0.00 100
20260906132315 52 304 6.0 11.0 0.00 0.00 0.00 100
20260906132115 52 327 5.0 11.0 0.00 0.00 0.00 100
20260906131915 53 325 5.0 11.0 0.00 0.00 0.00 100
20260906131713 53 336 6.0 11.0 0.00 0.00 0.00 100
20260906131513 53 297 4.0 9.0 0.00 0.00 0.00 100
20260906131313 54 266 6.0 9.0 0.00 0.00 0.00 100
20260906131113 54 267 7.0 10.0 0.00 0.00 0.00 100
20260906130913 54 241 8.0 15.0 0.00 0.00 0.00 100
20260906130713 54 211 7.0 12.0 0.00 0.00 0.00 100
20260906130513 54 207 7.0 10.0 0.00 0.00 0.00 100
20260906130313 54 190 8.0 13.0 0.00 0.00 0.00 100
20260906130113 54 198 7.0 13.0 0.00 0.00 0.00 100
20260906125913 54 201 9.0 14.0 0.00 0.00 0.00 100
20260906125711 54 178 10.0 14.0 0.00 0.00 0.00 100
20260906125511 54 153 8.0 13.0 0.00 0.00 0.00 100
20260906125311 54 174 7.0 10.0 0.00 0.00 0.00 100
20260906125111 54 202 7.0 11.0 0.00 0.00 0.00 100
20260906124911 53 180 5.0 11.0 0.00 0.00 0.00 100
20260906124711 53 252 4.0 8.0 0.00 0.00 0.00 100
20260906124512 53 270 4.0 12.0 0.00 0.00 0.00 100
20260906124312 53 12 2.0 5.0 0.00 0.00 0.00 100
20260906124112 52 311 5.0 12.0 0.00 0.00 0.00 100
20260906123912 52 45 4.0 12.0 0.00 0.00 0.00 100
20260906123710 52 50 4.0 6.0 0.00 0.00 0.00 100
20260906123510 52 287 3.0 6.0 0.00 0.00 0.00 100
20260906123310 52 324 3.0 6.0 0.00 0.00 0.00 100
20260906123110 52 346 5.0 8.0 0.00 0.00 0.00 100
20260906122910 52 286 4.0 9.0 0.00 0.00 0.00 100
20260906122701 53 67 4.0 10.0 0.00 0.00 0.00 100
20260906122501 53 296 4.0 10.0 0.00 0.00 0.00 100
20260906122301 54 329 2.0 6.0 0.00 0.00 0.00 100
20260906122101 54 305 4.0 10.0 0.00 0.00 0.00 100
20260906121901 54 53 5.0 10.0 0.00 0.00 0.00 100
20260906121659 54 339 5.0 8.0 0.00 0.00 0.00 100
20260906121459 54 263 5.0 9.0 0.00 0.00 0.00 100
20260906121259 54 278 3.0 7.0 0.00 0.00 0.00 100
20260906121059 54 258 6.0 13.0 0.00 0.00 0.00 100
20260906120859 54 248 5.0 13.0 0.00 0.00 0.00 100
20260906120657 53 242 4.0 9.0 0.00 0.00 0.00 100
20260906120457 53 315 4.0 9.0 0.00 0.00 0.00 100
20260906120256 52 270 4.0 9.0 0.00 0.00 0.00 100
20260906120056 51 225 5.0 9.0 0.00 0.00 0.00 100
20260906115856 51 180 6.0 13.0 0.00 0.00 0.00 100
20260906115654 51 251 6.0 13.0 0.00 0.00 0.00 100
20260906115454 51 285 7.0 15.0 0.00 0.00 0.00 100
20260906115254 51 244 6.0 12.0 0.00 0.00 0.00 100
20260906115054 51 234 7.0 11.0 0.00 0.00 0.00 100
20260906114854 51 249 7.0 12.0 0.00 0.00 0.00 100
20260906114654 51 256 5.0 11.0 0.00 0.00 0.00 100
20260906114454 52 276 6.0 16.0 0.00 0.00 0.00 100
20260906114254 52 275 6.0 16.0 0.00 0.00 0.00 100
20260906114054 52 277 5.0 9.0 0.00 0.00 0.00 100
20260906113854 52 240 4.0 8.0 0.00 0.00 0.00 100
20260906113652 53 227 4.0 7.0 0.00 0.00 0.00 100
20260906113452 53 266 4.0 8.0 0.00 0.00 0.00 100
20260906113253 53 215 5.0 10.0 0.00 0.00 0.00 100
20260906113052 53 192 8.0 12.0 0.00 0.00 0.00 100
20260906112852 53 229 7.0 12.0 0.00 0.00 0.00 100
20260906112652 53 254 6.0 11.0 0.00 0.00 0.00 100
20260906112452 53 209 9.0 16.0 0.00 0.00 0.00 100
20260906112252 53 244 5.0 12.0 0.00 0.00 0.00 100
20260906112051 53 298 6.0 12.0 0.00 0.00 0.00 100
20260906111851 53 290 7.0 12.0 0.00 0.00 0.00 100
20260906111649 53 249 7.0 10.0 0.00 0.00 0.00 100
20260906111449 52 255 6.0 11.0 0.00 0.00 0.00 100
20260906111249 52 241 6.0 9.0 0.00 0.00 0.00 100
20260906111049 52 291 6.0 10.0 0.00 0.00 0.00 100
20260906110850 52 339 6.0 12.0 0.00 0.00 0.00 100
20260906110650 53 284 6.0 12.0 0.00 0.00 0.00 100
20260906110450 53 289 6.0 9.0 0.00 0.00 0.00 100
20260906110250 53 264 6.0 10.0 0.00 0.00 0.00 100
20260906110049 53 228 6.0 10.0 0.00 0.00 0.00 100
20260906105850 53 243 6.0 16.0 0.00 0.00 0.00 100
20260906105648 53 272 4.0 8.0 0.00 0.00 0.00 100
20260906105448 53 6 4.0 8.0 0.00 0.00 0.00 100
20260906105248 53 123 4.0 10.0 0.00 0.00 0.00 100
20260906105048 53 246 5.0 10.0 0.00 0.00 0.00 100
20260906104848 53 298 5.0 10.0 0.00 0.00 0.00 100
20260906104648 53 2 4.0 10.0 0.00 0.00 0.00 100
20260906104448 52 21 3.0 7.0 0.00 0.00 0.00 100
20260906104248 52 341 5.0 8.0 0.00 0.00 0.00 100
20260906104048 52 270 5.0 11.0 0.00 0.00 0.00 100
20260906103848 52 286 6.0 10.0 0.00 0.00 0.00 100
20260906103646 52 264 6.0 10.0 0.00 0.00 0.00 100
20260906103446 52 246 5.0 12.0 0.00 0.00 0.00 100
20260906103246 52 250 8.0 18.0 0.00 0.00 0.00 100
20260906103046 52 235 5.0 8.0 0.00 0.00 0.00 100
20260906102846 52 343 4.0 12.0 0.00 0.00 0.00 100
20260906102646 52 313 6.0 12.0 0.00 0.00 0.00 100
20260906102446 51 0 4.0 8.0 0.00 0.00 0.00 100
20260906102246 51 262 5.0 9.0 0.00 0.00 0.00 100
20260906102046 50 270 6.0 12.0 0.00 0.00 0.00 100
20260906101846 50 279 7.0 12.0 0.00 0.00 0.00 100
20260906101644 50 270 8.0 13.0 0.00 0.00 0.00 100
20260906101444 50 283 5.0 12.0 0.00 0.00 0.00 100
20260906101244 51 286 5.0 11.0 0.00 0.00 0.00 100
20260906101044 51 270 7.0 12.0 0.00 0.00 0.00 100
20260906100844 51 264 6.0 12.0 0.00 0.00 0.00 100
20260906100644 50 252 7.0 14.0 0.00 0.00 0.00 100
20260906100445 50 258 6.0 14.0 0.00 0.00 0.00 100
20260906100245 49 270 4.0 8.0 0.00 0.00 0.00 100
20260906100045 49 270 4.0 8.0 0.00 0.00 0.00 100
20260906095845 49 263 5.0 10.0 0.00 0.00 0.00 100
20260906095643 49 300 6.0 10.0 0.00 0.00 0.00 100
20260906095443 49 272 5.0 11.0 0.00 0.00 0.00 100
20260906095243 49 140 4.0 9.0 0.00 0.00 0.00 100
20260906095035 50 350 6.0 15.0 0.00 0.00 0.00 100
20260906094835 50 329 5.0 15.0 0.00 0.00 0.00 100
20260906094635 50 322 3.0 7.0 0.00 0.00 0.00 100
20260906094435 50 313 4.0 8.0 0.00 0.00 0.00 100
20260906094235 50 340 6.0 10.0 0.00 0.00 0.00 100
20260906094036 49 299 5.0 10.0 0.00 0.00 0.00 100
20260906093836 49 292 5.0 10.0 0.00 0.00 0.00 100
20260906093634 49 280 4.0 10.0 0.00 0.00 0.00 100
20260906093433 49 268 4.0 8.0 0.00 0.00 0.00 100
20260906093233 50 322 5.0 8.0 0.00 0.00 0.00 100
20260906093033 50 35 7.0 13.0 0.00 0.00 0.00 100
20260906092833 50 0 6.0 13.0 0.00 0.00 0.00 100
20260906092633 50 352 4.0 9.0 0.00 0.00 0.00 100
20260906092433 50 0 5.0 13.0 0.00 0.00 0.00 100
20260906092233 50 358 4.0 12.0 0.00 0.00 0.00 100
20260906092033 49 301 4.0 9.0 0.00 0.00 0.00 100
20260906091833 49 274 6.0 9.0 0.00 0.00 0.00 100
20260906091631 48 347 6.0 11.0 0.00 0.00 0.00 100
20260906091430 48 336 6.0 11.0 0.00 0.00 0.00 100
20260906091230 48 334 5.0 11.0 0.00 0.00 0.00 100
20260906091031 49 32 4.0 7.0 0.00 0.00 0.00 100
20260906090831 49 340 6.0 10.0 0.00 0.00 0.00 100
20260906090631 49 0 4.0 6.0 0.00 0.00 0.00 100
20260906090431 50 327 5.0 8.0 0.00 0.00 0.00 100
20260906090231 50 261 5.0 14.0 0.00 0.00 0.00 100
20260906090031 50 318 5.0 8.0 0.00 0.00 0.00 100
20260906085831 50 292 6.0 10.0 0.00 0.00 0.00 100
20260906085629 50 314 6.0 10.0 0.00 0.00 0.00 100
20260906085429 50 319 5.0 15.0 0.00 0.00 0.00 100
20260906085228 49 315 6.0 14.0 0.00 0.00 0.00 100
20260906085028 48 355 6.0 12.0 0.00 0.00 0.00 100
20260906084828 48 351 7.0 12.0 0.00 0.00 0.00 100
20260906084628 48 355 6.0 13.0 0.00 0.00 0.00 100
20260906084428 48 345 6.0 11.0 0.00 0.00 0.00 100
20260906084228 48 311 6.0 10.0 0.00 0.00 0.00 100
20260906084028 48 310 4.0 10.0 0.00 0.00 0.00 100
20260906083829 48 354 2.0 4.0 0.00 0.00 0.00 100
20260906083626 48 41 2.0 4.0 0.00 0.00 0.00 100
20260906083427 48 10 4.0 9.0 0.00 0.00 0.00 100
20260906083226 48 9 4.0 8.0 0.00 0.00 0.00 100
20260906083026 48 289 3.0 6.0 0.00 0.00 0.00 100
20260906082826 48 297 4.0 9.0 0.00 0.00 0.00 100
20260906082626 49 331 7.0 14.0 0.00 0.00 0.00 100
20260906082426 49 320 6.0 14.0 0.00 0.00 0.00 100
20260906082226 49 334 7.0 11.0 0.00 0.00 0.00 100
20260906082026 49 292 5.0 14.0 0.00 0.00 0.00 100
20260906081826 49 35 3.0 8.0 0.00 0.00 0.00 100
20260906081624 49 334 4.0 8.0 0.00 0.00 0.00 100
20260906081424 48 285 6.0 11.0 0.00 0.00 0.00 100
20260906081224 48 290 6.0 11.0 0.00 0.00 0.00 100
20260906081023 48 322 5.0 9.0 0.00 0.00 0.00 100
20260906080823 48 266 7.0 14.0 0.00 0.00 0.00 100
20260906080623 48 255 7.0 16.0 0.00 0.00 0.00 100
20260906080423 48 253 7.0 16.0 0.00 0.00 0.00 100
20260906080223 48 249 5.0 8.0 0.00 0.00 0.00 100
20260906080023 48 255 5.0 8.0 0.00 0.00 0.00 100
20260906075824 48 161 5.0 8.0 0.00 0.00 0.00 100
20260906075622 48 192 3.0 7.0 0.00 0.00 0.00 100
20260906075419 47 233 3.0 6.0 0.00 0.00 0.00 100
20260906075220 47 237 4.0 9.0 0.00 0.00 0.00 100
20260906075020 47 228 4.0 6.0 0.00 0.00 0.00 100
20260906074820 47 306 4.0 8.0 0.00 0.00 0.00 100
20260906074620 47 278 6.0 12.0 0.00 0.00 0.00 100
20260906074420 47 284 3.0 6.0 0.00 0.00 0.00 100
20260906074220 48 291 6.0 12.0 0.00 0.00 0.00 100
20260906074020 48 344 7.0 12.0 0.00 0.00 0.00 100
20260906073820 48 359 6.0 14.0 0.00 0.00 0.00 100
20260906073618 48 346 5.0 11.0 0.00 0.00 0.00 100
20260906073418 47 342 6.0 15.0 0.00 0.00 0.00 100
20260906073218 47 351 10.0 18.0 0.00 0.00 0.00 100
20260906073018 47 326 7.0 16.0 0.00 0.00 0.00 100
20260906072818 47 301 8.0 15.0 0.00 0.00 0.00 100
20260906072618 47 340 7.0 15.0 0.00 0.00 0.00 100
20260906072418 47 211 6.0 9.0 0.00 0.00 0.00 100
20260906072218 47 290 4.0 8.0 0.00 0.00 0.00 100
20260906072018 47 338 4.0 8.0 0.00 0.00 0.00 100
20260906071818 47 341 4.0 8.0 0.00 0.00 0.00 100
20260906071607 47 41 5.0 10.0 0.00 0.00 0.00 100
20260906071407 47 21 4.0 10.0 0.00 0.00 0.00 100
20260906071207 47 1 5.0 16.0 0.00 0.00 0.00 100
20260906071007 47 298 7.0 16.0 0.00 0.00 0.00 100
20260906070807 47 303 6.0 14.0 0.00 0.00 0.00 100
20260906070607 47 312 5.0 11.0 0.00 0.00 0.00 100
20260906070407 47 239 7.0 12.0 0.00 0.00 0.00 100
20260906070207 47 169 5.0 12.0 0.00 0.00 0.00 100
20260906070007 47 326 4.0 8.0 0.00 0.00 0.00 100
20260906065807 47 299 7.0 12.0 0.00 0.00 0.00 100
20260906065605 47 293 8.0 14.0 0.00 0.00 0.00 100
20260906065405 47 241 6.0 13.0 0.00 0.00 0.00 100
20260906065205 47 219 5.0 13.0 0.00 0.00 0.00 100
20260906065005 47 357 4.0 8.0 0.00 0.00 0.00 100
20260906064805 47 340 6.0 11.0 0.00 0.00 0.00 100
20260906064605 47 307 8.0 17.0 0.00 0.00 0.00 100
20260906064406 47 302 8.0 17.0 0.00 0.00 0.00 100
20260906064206 47 227 8.0 13.0 0.00 0.00 0.00 100
20260906064006 47 270 5.0 13.0 0.00 0.00 0.00 100
20260906063806 47 233 4.0 13.0 0.00 0.00 0.00 100
20260906063604 47 312 7.0 14.0 0.00 0.00 0.00 100
20260906063403 47 225 5.0 14.0 0.00 0.00 0.00 100
20260906063203 47 154 4.0 10.0 0.00 0.00 0.00 100
20260906063003 47 287 6.0 17.0 0.00 0.00 0.00 100
20260906062803 47 321 6.0 10.0 0.00 0.00 0.00 100
20260906062603 47 293 4.0 10.0 0.00 0.00 0.00 100
20260906062403 47 291 6.0 14.0 0.00 0.00 0.00 100
20260906062203 47 258 6.0 13.0 0.00 0.00 0.00 100
20260906062003 47 302 5.0 9.0 0.00 0.00 0.00 100
20260906061803 47 194 5.0 12.0 0.00 0.00 0.00 100
20260906061601 47 281 7.0 12.0 0.00 0.00 0.00 100
20260906061401 47 317 6.0 14.0 0.00 0.00 0.00 100
20260906061201 47 18 4.0 10.0 0.00 0.00 0.00 100
20260906061001 47 21 4.0 11.0 0.00 0.00 0.00 100
20260906060801 47 296 6.0 16.0 0.00 0.00 0.00 100
20260906060601 47 280 5.0 9.0 0.00 0.00 0.00 100
20260906060401 47 253 4.0 7.0 0.00 0.00 0.00 100
20260906060201 46 316 6.0 11.0 0.00 0.00 0.00 100
20260906060001 46 306 6.0 10.0 0.00 0.00 0.00 100
20260906055801 46 215 5.0 10.0 0.00 0.00 0.00 100
20260906055559 46 278 4.0 9.0 0.00 0.00 0.00 100
20260906055359 46 292 6.0 15.0 0.00 0.00 0.00 100
20260906055158 46 291 4.0 9.0 0.00 0.00 0.00 100
20260906054958 46 283 5.0 14.0 0.00 0.00 0.00 100
20260906054758 46 262 7.0 14.0 0.00 0.00 0.00 100
20260906054558 46 288 5.0 11.0 0.00 0.00 0.00 100
20260906054358 46 331 5.0 12.0 0.00 0.00 0.00 100
20260906054159 46 307 5.0 12.0 0.00 0.00 0.00 100
20260906053958 46 287 6.0 10.0 0.00 0.00 0.00 100
20260906053758 46 294 5.0 10.0 0.00 0.00 0.00 100
20260906053556 46 261 6.0 10.0 0.00 0.00 0.00 100
20260906053357 46 262 6.0 11.0 0.00 0.00 0.00 100
20260906053156 46 275 7.0 11.0 0.00 0.00 0.00 100
20260906052956 46 272 5.0 9.0 0.00 0.00 0.00 100
20260906052756 46 286 6.0 14.0 0.00 0.00 0.00 100
20260906052556 46 281 6.0 14.0 0.00 0.00 0.00 100
20260906052356 46 281 7.0 11.0 0.00 0.00 0.00 100
20260906052156 46 270 6.0 10.0 0.00 0.00 0.00 100
20260906051956 46 269 5.0 12.0 0.00 0.00 0.00 100
20260906051756 45 253 5.0 12.0 0.00 0.00 0.00 100
20260906051554 45 257 6.0 12.0 0.00 0.00 0.00 100
20260906051354 45 238 7.0 12.0 0.00 0.00 0.00 100
20260906051154 45 256 6.0 11.0 0.00 0.00 0.00 100
20260906050954 45 256 6.0 12.0 0.00 0.00 0.00 100
20260906050754 45 270 6.0 9.0 0.00 0.00 0.00 100
20260906050554 45 287 6.0 13.0 0.00 0.00 0.00 100
20260906050354 45 274 8.0 13.0 0.00 0.00 0.00 100
20260906050154 45 278 6.0 11.0 0.00 0.00 0.00 100
20260906045955 45 270 6.0 10.0 0.00 0.00 0.00 100
20260906045755 45 260 7.0 11.0 0.00 0.00 0.00 100
20260906045553 45 287 6.0 12.0 0.00 0.00 0.00 100
20260906045353 45 257 9.0 13.0 0.00 0.00 0.00 100
20260906045153 45 282 6.0 10.0 0.00 0.00 0.00 100
20260906044953 45 270 5.0 10.0 0.00 0.00 0.00 100
20260906044753 45 267 6.0 13.0 0.00 0.00 0.00 100
20260906044553 45 310 7.0 13.0 0.00 0.00 0.00 100
20260906044353 45 310 8.0 15.0 0.00 0.00 0.00 100
20260906044153 45 263 7.0 15.0 0.00 0.00 0.00 100
20260906043945 45 281 8.0 20.0 0.00 0.00 0.00 100
20260906043745 45 291 7.0 17.0 0.00 0.00 0.00 100
20260906043543 45 296 8.0 17.0 0.00 0.00 0.00 100
20260906043344 45 275 11.0 17.0 0.00 0.00 0.00 100
20260906043144 45 258 7.0 17.0 0.00 0.00 0.00 100
20260906042944 45 277 6.0 11.0 0.00 0.00 0.00 100
20260906042743 45 274 7.0 12.0 0.00 0.00 0.00 100
20260906042543 45 244 8.0 16.0 0.00 0.00 0.00 100
20260906042344 45 278 7.0 16.0 0.00 0.00 0.00 100
20260906042144 45 317 5.0 10.0 0.00 0.00 0.00 100
20260906041944 45 305 6.0 12.0 0.00 0.00 0.00 100
20260906041744 45 323 6.0 12.0 0.00 0.00 0.00 100
20260906041542 44 330 6.0 11.0 0.00 0.00 0.00 100
20260906041342 44 317 6.0 11.0 0.00 0.00 0.00 100
20260906041142 44 327 5.0 8.0 0.00 0.00 0.00 100
20260906040942 44 208 5.0 9.0 0.00 0.00 0.00 100
20260906040742 44 255 6.0 11.0 0.00 0.00 0.00 100
20260906040542 44 270 6.0 11.0 0.00 0.00 0.00 100
20260906040342 44 281 6.0 16.0 0.00 0.00 0.00 100
20260906040142 44 308 5.0 12.0 0.00 0.00 0.00 100
20260906035942 44 270 7.0 12.0 0.00 0.00 0.00 100
20260906035742 44 252 6.0 12.0 0.00 0.00 0.00 100
20260906035541 44 222 7.0 12.0 0.00 0.00 0.00 100
20260906035340 44 245 6.0 12.0 0.00 0.00 0.00 100
20260906035140 44 240 4.0 9.0 0.00 0.00 0.00 100
20260906034940 44 282 4.0 10.0 0.00 0.00 0.00 100
20260906034740 44 288 4.0 10.0 0.00 0.00 0.00 100
20260906034538 45 275 5.0 10.0 0.00 0.00 0.00 100
20260906034338 45 320 6.0 11.0 0.00 0.00 0.00 100
20260906034138 45 301 5.0 11.0 0.00 0.00 0.00 100
20260906033938 45 285 7.0 11.0 0.00 0.00 0.00 100
20260906033738 45 306 7.0 16.0 0.00 0.00 0.00 100
20260906033536 45 289 7.0 14.0 0.00 0.00 0.00 100
20260906033336 45 269 6.0 14.0 0.00 0.00 0.00 100
20260906033136 45 301 5.0 9.0 0.00 0.00 0.00 100
20260906032936 45 305 6.0 14.0 0.00 0.00 0.00 100
20260906032736 45 282 6.0 12.0 0.00 0.00 0.00 100
20260906032536 45 239 6.0 12.0 0.00 0.00 0.00 100
20260906032336 45 253 5.0 12.0 0.00 0.00 0.00 100
20260906032136 45 286 7.0 12.0 0.00 0.00 0.00 100
20260906031936 45 260 6.0 9.0 0.00 0.00 0.00 100
20260906031736 45 292 6.0 11.0 0.00 0.00 0.00 100
20260906031534 45 297 5.0 10.0 0.00 0.00 0.00 100
20260906031334 45 308 6.0 14.0 0.00 0.00 0.00 100
20260906031134 45 328 7.0 12.0 0.00 0.00 0.00 100
20260906030934 45 253 6.0 13.0 0.00 0.00 0.00 100
20260906030734 45 245 7.0 12.0 0.00 0.00 0.00 100
20260906030534 45 244 7.0 12.0 0.00 0.00 0.00 100
20260906030337 45 262 7.0 12.0 0.00 0.00 0.00 100
20260906030133 45 275 9.0 19.0 0.00 0.00 0.00 100
20260906025933 45 241 8.0 14.0 0.00 0.00 0.00 100
20260906025733 45 276 8.0 13.0 0.00 0.00 0.00 100
20260906025532 45 314 6.0 10.0 0.00 0.00 0.00 100
20260906025332 45 249 6.0 10.0 0.00 0.00 0.00 100
20260906025132 46 277 7.0 13.0 0.00 0.00 0.00 100
20260906024932 46 223 8.0 14.0 0.00 0.00 0.00 100
20260906024732 46 228 6.0 10.0 0.00 0.00 0.00 100
20260906024532 46 236 6.0 10.0 0.00 0.00 0.00 100
20260906024331 46 258 5.0 9.0 0.00 0.00 0.00 100
20260906024131 46 262 7.0 12.0 0.00 0.00 0.00 100
20260906023931 46 262 6.0 12.0 0.00 0.00 0.00 100
20260906023731 46 258 7.0 16.0 0.00 0.00 0.00 100
20260906023529 46 245 5.0 10.0 0.00 0.00 0.00 100
20260906023329 46 242 6.0 11.0 0.00 0.00 0.00 100
20260906023129 46 183 8.0 16.0 0.00 0.00 0.00 100
20260906022929 46 209 8.0 14.0 0.00 0.00 0.00 100
20260906022729 46 275 8.0 14.0 0.00 0.00 0.00 100
20260906022529 46 246 5.0 11.0 0.00 0.00 0.00 100
20260906022329 46 236 6.0 11.0 0.00 0.00 0.00 100
20260906022129 46 277 7.0 14.0 0.00 0.00 0.00 100
20260906021929 46 245 7.0 14.0 0.00 0.00 0.00 100
20260906021729 46 225 6.0 13.0 0.00 0.00 0.00 100
20260906021527 46 224 6.0 13.0 0.00 0.00 0.00 100
20260906021327 46 249 7.0 12.0 0.00 0.00 0.00 100
20260906021127 46 257 6.0 10.0 0.00 0.00 0.00 100
20260906020927 46 255 6.0 15.0 0.00 0.00 0.00 100
20260906020727 46 250 7.0 16.0 0.00 0.00 0.00 100
20260906020518 46 241 8.0 12.0 0.00 0.00 0.00 100
20260906020318 46 265 7.0 12.0 0.00 0.00 0.00 100
20260906020118 46 275 6.0 12.0 0.00 0.00 0.00 100
20260906015918 46 211 7.0 12.0 0.00 0.00 0.00 100
20260906015718 47 236 8.0 13.0 0.00 0.00 0.00 100
20260906015516 47 241 9.0 14.0 0.00 0.00 0.00 100
20260906015316 47 245 8.0 16.0 0.00 0.00 0.00 100
20260906015116 47 223 8.0 13.0 0.00 0.00 0.00 100
20260906014915 47 216 9.0 18.0 0.00 0.00 0.00 100
20260906014715 47 229 8.0 18.0 0.00 0.00 0.00 100
20260906014515 47 258 9.0 14.0 0.00 0.00 0.00 100
20260906014315 47 280 9.0 15.0 0.00 0.00 0.00 100
20260906014115 47 278 8.0 16.0 0.00 0.00 0.00 100
20260906013915 47 264 8.0 16.0 0.00 0.00 0.00 100
20260906013716 47 253 6.0 13.0 0.00 0.00 0.00 100
20260906013514 47 248 7.0 12.0 0.00 0.00 0.00 100
20260906013314 47 244 7.0 16.0 0.00 0.00 0.00 100
20260906013114 47 224 7.0 16.0 0.00 0.00 0.00 100
20260906012914 47 230 8.0 12.0 0.00 0.00 0.00 100
20260906012713 47 277 6.0 11.0 0.00 0.00 0.00 100
20260906012513 47 241 5.0 11.0 0.00 0.00 0.00 100
20260906012313 47 236 7.0 12.0 0.00 0.00 0.00 100
20260906012113 46 260 6.0 11.0 0.00 0.00 0.00 100
20260906011913 46 275 6.0 10.0 0.00 0.00 0.00 100
20260906011713 46 255 6.0 9.0 0.00 0.00 0.00 100
20260906011511 46 242 7.0 9.0 0.00 0.00 0.00 100
20260906011311 46 227 7.0 10.0 0.00 0.00 0.00 100
20260906011111 46 228 7.0 10.0 0.00 0.00 0.00 100
20260906010911 46 269 7.0 10.0 0.00 0.00 0.00 100
20260906010711 46 277 7.0 10.0 0.00 0.00 0.00 100
20260906010511 46 260 6.0 14.0 0.00 0.00 0.00 100
20260906010311 46 264 7.0 12.0 0.00 0.00 0.00 100
20260906010111 46 218 7.0 10.0 0.00 0.00 0.00 100
20260906005911 46 198 5.0 8.0 0.00 0.00 0.00 100
20260906005711 46 275 6.0 12.0 0.00 0.00 0.00 100
20260906005509 46 295 4.0 12.0 0.00 0.00 0.00 100
20260906005309 46 220 4.0 9.0 0.00 0.00 0.00 100
20260906005109 46 259 4.0 8.0 0.00 0.00 0.00 100
20260906004909 46 276 6.0 12.0 0.00 0.00 0.00 100
20260906004709 46 282 5.0 10.0 0.00 0.00 0.00 100
20260906004508 46 258 4.0 10.0 0.00 0.00 0.00 100
20260906004308 46 309 2.0 6.0 0.00 0.00 0.00 100
20260906004108 46 263 5.0 19.0 0.00 0.00 0.00 100
20260906003908 46 254 6.0 19.0 0.00 0.00 0.00 100
20260906003708 46 258 6.0 12.0 0.00 0.00 0.00 100
20260906003506 46 259 6.0 14.0 0.00 0.00 0.00 100
20260906003306 46 269 8.0 14.0 0.00 0.00 0.00 100
20260906003106 46 250 9.0 14.0 0.00 0.00 0.00 100
20260906002906 46 248 8.0 13.0 0.00 0.00 0.00 100
20260906002707 46 258 7.0 14.0 0.00 0.00 0.00 100
20260906002506 46 273 7.0 15.0 0.00 0.00 0.00 100
20260906002306 46 254 7.0 13.0 0.00 0.00 0.00 100
20260906002106 46 245 7.0 13.0 0.00 0.00 0.00 100
20260906001906 46 251 9.0 15.0 0.00 0.00 0.00 100
20260906001706 46 272 8.0 15.0 0.00 0.00 0.00 100
20260906001504 46 262 7.0 13.0 0.00 0.00 0.00 100
20260906001304 46 255 6.0 11.0 0.00 0.00 0.00 100
20260906001104 46 259 6.0 14.0 0.00 0.00 0.00 100
20260906000904 46 270 8.0 21.0 0.00 0.00 0.00 100
20260906000704 46 253 8.0 16.0 0.00 0.00 0.00 100
20260906000504 46 265 9.0 16.0 0.00 0.00 0.00 100
20260906000304 46 200 7.0 15.0 0.00 0.00 0.00 100
20260906000103 46 234 7.0 15.0 0.00 0.00 0.00 100
20260905235904 46 224 7.0 13.0 0.00 0.00 0.00 100
20260905235704 46 279 7.0 13.0 0.00 0.00 0.00 100
20260905235502 46 272 8.0 11.0 0.00 0.00 0.00 100
20260905235306 46 270 7.0 10.0 0.00 0.00 0.00 100
20260905235102 46 272 6.0 13.0 0.00 0.00 0.00 100
20260905234902 46 255 6.0 13.0 0.00 0.00 0.00 100
20260905234702 46 252 7.0 13.0 0.00 0.00 0.00 100
20260905234502 46 257 7.0 12.0 0.00 0.00 0.00 100
20260905234302 46 222 7.0 10.0 0.00 0.00 0.00 100
20260905234102 46 222 5.0 9.0 0.00 0.00 0.00 100
20260905233902 46 271 6.0 14.0 0.00 0.00 0.00 100
20260905233702 46 254 6.0 10.0 0.00 0.00 0.00 100
20260905233500 46 224 8.0 13.0 0.00 0.00 0.00 100
20260905233258 46 248 7.0 11.0 0.00 0.00 0.00 100
20260905233058 46 254 6.0 10.0 0.00 0.00 0.00 100
20260905232850 46 235 6.0 10.0 0.00 0.00 0.00 100
20260905232651 46 244 6.0 13.0 0.00 0.00 0.00 100
20260905232450 46 250 6.0 10.0 0.00 0.00 0.00 100
20260905232250 46 251 6.0 12.0 0.00 0.00 0.00 100
20260905232050 46 267 7.0 12.0 0.00 0.00 0.00 100
20260905231850 46 234 8.0 12.0 0.00 0.00 0.00 100
20260905231650 46 256 8.0 12.0 0.00 0.00 0.00 100
20260905231449 46 244 6.0 13.0 0.00 0.00 0.00 100
20260905231249 46 252 7.0 13.0 0.00 0.00 0.00 100
20260905231049 46 275 6.0 10.0 0.00 0.00 0.00 100
20260905230848 46 214 7.0 12.0 0.00 0.00 0.00 100
20260905230648 46 235 6.0 12.0 0.00 0.00 0.00 100
20260905230448 47 247 6.0 10.0 0.00 0.00 0.00 100
20260905230248 47 267 8.0 14.0 0.00 0.00 0.00 100
20260905230048 47 230 8.0 14.0 0.00 0.00 0.00 100
20260905225848 47 248 7.0 14.0 0.00 0.00 0.00 100
20260905225648 48 286 8.0 15.0 0.00 0.00 0.00 100
20260905225446 48 255 7.0 13.0 0.00 0.00 0.00 100
20260905225246 48 270 6.0 13.0 0.00 0.00 0.00 100
20260905225046 48 353 4.0 9.0 0.00 0.00 0.00 100
20260905224845 48 249 5.0 14.0 0.00 0.00 0.00 100
20260905224645 48 282 6.0 14.0 0.00 0.00 0.00 100
20260905224445 48 293 4.0 7.0 0.00 0.00 0.00 100
20260905224246 48 279 4.0 8.0 0.00 0.00 0.00 100
20260905224046 48 255 5.0 10.0 0.00 0.00 0.00 100
20260905223846 48 295 3.0 8.0 0.00 0.00 0.00 100
20260905223646 48 32 3.0 7.0 0.00 0.00 0.00 100
20260905223444 48 36 4.0 8.0 0.00 0.00 0.00 100
20260905223244 48 352 5.0 10.0 0.00 0.00 0.00 100
20260905223044 48 320 4.0 10.0 0.00 0.00 0.00 100
20260905222844 48 357 6.0 10.0 0.00 0.00 0.00 100
20260905222643 48 354 6.0 10.0 0.00 0.00 0.00 100
20260905222443 48 329 6.0 11.0 0.00 0.00 0.00 100
20260905222243 48 334 5.0 11.0 0.00 0.00 0.00 100
20260905222043 48 349 5.0 9.0 0.00 0.00 0.00 100
20260905221843 48 339 9.0 20.0 0.00 0.00 0.00 100
20260905221643 48 323 6.0 11.0 0.00 0.00 0.00 100
20260905221441 48 337 6.0 10.0 0.00 0.00 0.00 100
20260905221241 48 35 6.0 13.0 0.00 0.00 0.00 100
20260905221041 48 37 9.0 16.0 0.00 0.00 0.00 100
20260905220841 48 22 7.0 13.0 0.00 0.00 0.00 100
20260905220641 48 16 7.0 14.0 0.00 0.00 0.00 100
20260905220441 49 15 8.0 16.0 0.00 0.00 0.00 100
20260905220241 49 23 8.0 16.0 0.00 0.00 0.00 100
20260905220041 49 7 8.0 14.0 0.00 0.00 0.00 100
20260905215841 49 23 7.0 12.0 0.00 0.00 0.00 100
20260905215641 49 10 8.0 12.0 0.00 0.00 0.00 100
20260905215439 49 4 9.0 15.0 0.00 0.00 0.00 100
20260905215239 50 6 8.0 11.0 0.00 0.00 0.00 100
20260905215039 50 22 9.0 13.0 0.00 0.00 0.00 100
20260905214839 50 42 10.0 22.0 0.00 0.00 0.00 100
20260905214639 51 27 8.0 22.0 0.00 0.00 0.00 100
20260905214438 51 38 11.0 27.0 0.00 0.00 0.00 100
20260905214238 51 29 12.0 27.0 0.00 0.00 0.00 100
20260905214038 52 16 8.0 14.0 0.00 0.00 0.00 100
20260905213838 52 350 7.0 13.0 0.00 0.00 0.00 100
20260905213638 53 350 8.0 14.0 0.00 0.00 0.00 100
20260905213437 53 186 7.0 15.0 0.00 0.00 0.00 100
20260905213237 53 217 5.0 13.0 0.00 0.00 0.00 100
20260905213037 53 200 8.0 18.0 0.00 0.00 0.00 100
20260905212837 53 247 8.0 18.0 0.00 0.00 0.00 100
20260905212637 53 259 7.0 14.0 0.00 0.00 0.00 100
20260905212436 53 254 7.0 21.0 0.00 0.00 0.00 100
20260905212236 53 217 8.0 15.0 0.00 0.00 0.00 100
20260905212036 53 242 9.0 16.0 0.00 0.00 0.00 100
20260905211836 53 263 8.0 15.0 0.00 0.00 0.00 100
20260905211636 53 248 9.0 19.0 0.00 0.00 0.00 100
20260905211434 53 251 10.0 19.0 0.00 0.00 0.00 100
20260905211234 53 242 9.0 16.0 0.00 0.00 0.00 100
20260905211034 53 246 6.0 16.0 0.00 0.00 0.00 100
20260905210834 53 219 7.0 13.0 0.00 0.00 0.00 100
20260905210634 53 225 9.0 16.0 0.00 0.00 0.00 100
20260905210434 53 204 7.0 16.0 0.00 0.00 0.00 100
20260905210234 53 251 8.0 17.0 0.00 0.00 0.00 100
20260905210034 53 254 10.0 18.0 0.00 0.00 0.00 100
20260905205834 53 245 10.0 15.0 0.00 0.00 0.00 100
20260905205634 53 232 11.0 17.0 0.00 0.00 0.00 100
20260905205423 53 214 10.0 20.0 0.00 0.00 0.00 100
20260905205223 53 224 8.0 17.0 0.00 0.00 0.00 100
20260905205023 53 241 7.0 13.0 0.00 0.00 0.00 100
20260905204823 53 201 10.0 15.0 0.00 0.00 0.00 100
20260905204623 53 189 10.0 18.0 0.00 0.00 0.00 100
20260905204423 53 208 10.0 16.0 0.00 0.00 0.00 100
20260905204223 53 206 10.0 16.0 0.00 0.00 0.00 100
20260905204023 53 220 9.0 14.0 0.00 0.00 0.00 100
20260905203823 53 258 9.0 18.0 0.00 0.00 0.00 100
20260905203623 53 239 10.0 18.0 0.00 0.00 0.00 100
20260905203421 53 232 8.0 15.0 0.00 0.00 0.00 100
20260905203221 53 218 9.0 16.0 0.00 0.00 0.00 100
20260905203020 53 219 10.0 19.0 0.00 0.00 0.00 100
20260905202820 53 227 12.0 22.0 0.00 0.00 0.00 100
20260905202620 53 241 9.0 20.0 0.00 0.00 0.00 100
20260905202421 53 244 10.0 19.0 0.00 0.00 0.00 100
20260905202220 53 210 10.0 21.0 0.00 0.00 0.00 100
20260905202020 53 198 8.0 15.0 0.00 0.00 0.00 100
20260905201820 53 240 9.0 16.0 0.00 0.00 0.00 100
20260905201620 53 240 10.0 23.0 0.00 0.00 0.00 100
20260905201418 53 215 10.0 23.0 0.00 0.00 0.00 100
20260905201218 53 215 8.0 16.0 0.00 0.00 0.00 100
20260905201018 53 230 9.0 14.0 0.00 0.00 0.00 100
20260905200818 53 199 8.0 14.0 0.00 0.00 0.00 100
20260905200619 53 222 10.0 16.0 0.00 0.00 0.00 100
20260905200418 53 225 10.0 16.0 0.00 0.00 0.00 100
20260905200218 53 240 7.0 12.0 0.00 0.00 0.00 100
20260905200018 53 244 8.0 15.0 0.00 0.00 0.00 100
20260905195818 53 246 7.0 15.0 0.00 0.00 0.00 100
20260905195619 53 246 7.0 13.0 0.00 0.00 0.00 100
20260905195417 53 209 6.0 10.0 0.00 0.00 0.00 100
20260905195217 54 219 8.0 11.0 0.00 0.00 0.00 100
20260905195017 54 214 8.0 14.0 0.00 0.00 0.00 100
20260905194817 54 212 9.0 18.0 0.00 0.00 0.00 100
20260905194617 54 247 9.0 18.0 0.00 0.00 0.00 100
20260905194417 54 259 8.0 15.0 0.00 0.00 0.00 100
20260905194217 54 192 9.0 16.0 0.00 0.00 0.00 100
20260905194017 54 215 10.0 20.0 0.00 0.00 0.00 100
20260905193817 54 259 11.0 17.0 0.00 0.00 0.00 100
20260905193617 54 255 10.0 25.0 0.00 0.00 0.00 100
20260905193415 54 228 9.0 16.0 0.00 0.00 0.00 100
20260905193215 54 234 8.0 14.0 0.00 0.00 0.00 100
20260905193015 54 242 9.0 14.0 0.00 0.00 0.00 100
20260905192815 54 220 11.0 19.0 0.00 0.00 0.00 100
20260905192615 54 224 10.0 19.0 0.00 0.00 0.00 100
20260905192413 54 245 10.0 17.0 0.00 0.00 0.00 100
20260905192213 54 253 10.0 18.0 0.00 0.00 0.00 100
20260905192013 54 249 11.0 18.0 0.00 0.00 0.00 100
20260905191813 54 244 9.0 14.0 0.00 0.00 0.00 100
20260905191613 54 198 9.0 15.0 0.00 0.00 0.00 100
20260905191411 54 195 8.0 15.0 0.00 0.00 0.00 100
20260905191211 54 232 9.0 17.0 0.00 0.00 0.00 100
20260905191011 54 247 8.0 14.0 0.00 0.00 0.00 100
20260905190811 54 216 10.0 18.0 0.00 0.00 0.00 100
20260905190611 54 166 11.0 19.0 0.00 0.00 0.00 100
20260905190411 54 180 10.0 13.0 0.00 0.00 0.00 100
20260905190211 54 175 11.0 21.0 0.00 0.00 0.00 100
20260905190011 54 194 9.0 17.0 0.00 0.00 0.00 100
20260905185811 54 194 9.0 15.0 0.00 0.00 0.00 100
20260905185611 54 182 10.0 23.0 0.00 0.00 0.00 100
20260905185409 54 189 11.0 17.0 0.00 0.00 0.00 100
20260905185209 54 206 10.0 17.0 0.00 0.00 0.00 100
20260905185009 54 195 9.0 14.0 0.00 0.00 0.00 100
20260905184809 54 193 9.0 16.0 0.00 0.00 0.00 100
20260905184609 54 192 8.0 13.0 0.00 0.00 0.00 100
20260905184408 54 199 7.0 13.0 0.00 0.00 0.00 100
20260905184208 54 153 10.0 14.0 0.00 0.00 0.00 100
20260905184008 54 140 8.0 13.0 0.00 0.00 0.00 100
20260905183809 54 187 8.0 14.0 0.00 0.00 0.00 100
20260905183609 54 214 9.0 16.0 0.00 0.00 0.00 100
20260905183407 54 248 9.0 16.0 0.00 0.00 0.00 100
20260905183207 55 142 8.0 15.0 0.00 0.00 0.00 100
20260905183007 55 123 8.0 17.0 0.00 0.00 0.00 100
20260905182807 55 297 8.0 17.0 0.00 0.00 0.00 100
20260905182607 55 138 7.0 15.0 0.00 0.00 0.00 100
20260905182407 55 174 8.0 15.0 0.00 0.00 0.00 100
20260905182209 55 147 8.0 11.0 0.00 0.00 0.00 100
20260905182007 55 160 10.0 16.0 0.00 0.00 0.00 100
20260905181759 55 197 10.0 17.0 0.00 0.00 0.00 100
20260905181559 55 187 10.0 17.0 0.00 0.00 0.00 100
20260905181358 55 151 10.0 16.0 0.00 0.00 0.00 100
20260905181158 55 178 10.0 21.0 0.00 0.00 0.00 100
20260905180958 55 212 10.0 21.0 0.00 0.00 0.00 100
20260905180758 54 184 10.0 14.0 0.00 0.00 0.00 100
20260905180558 54 156 10.0 17.0 0.00 0.00 0.00 100
20260905180358 54 195 9.0 17.0 0.00 0.00 0.00 100
20260905180157 54 169 10.0 16.0 0.00 0.00 0.00 100
20260905175957 54 138 11.0 16.0 0.00 0.00 0.00 100
20260905175757 54 171 10.0 14.0 0.00 0.00 0.00 100
20260905175557 54 228 8.0 14.0 0.00 0.00 0.00 100
20260905175355 54 176 9.0 14.0 0.00 0.00 0.00 100
20260905175155 54 174 10.0 15.0 0.00 0.00 0.00 100
20260905174955 54 152 10.0 16.0 0.00 0.00 0.00 100
20260905174755 54 149 10.0 16.0 0.00 0.00 0.00 100
20260905174600 54 165 12.0 16.0 0.00 0.00 0.00 100